Weather in Bolshaya Riga

Russia / Kurgan Oblast     55°35′22″N   63°13′40″E
temp.,
°C
wind,
m/s
gust,
m/s
humid.,
%
clouds,
%
prec.,
mm/h
press.,
hPa
HPBL,
m
25 june, sat
sat2523:00+17nnw259794 1.0 1007147
02:00+16ese2398100 3.4 100767
05:00+16wnw1198100 3.6 100618
08:00+18n1285100 0.0 1005386
11:00+20n1269100 0.0 1004823
14:00+22nw345594 0.0 10031503
17:00+22nw34530 0.0 10011613
20:00+19nw487647 0.1 1001226
26 june, sun
sun2623:00+14nw3889100 0.3 1001152
02:00+13wnw5119417 0.1 1001289
05:00+11nw613929 0.1 1002528
08:00+11nw8107238 0.0 1004978
11:00+11nw5969100 0.0 10041057
14:00+12nw61069100 0.1 10051232
17:00+12nw7972100 0.1 10051074
20:00+11nw61076100 0.0 1006891
27 june, mon
mon2723:00+8nw61087100 0.1 1007697
02:00+8nw6987100 0.1 1008862
05:00+8nw61086100 0.1 1008666
08:00+8wnw5108496 0.0 1009624
11:00+12wnw797395 0.1 10101020
14:00+13wnw677187 0.0 10101085
17:00+16w36643 0.1 10081223
20:00+15sw3571100 0.0 100795
28 june, tue
tue2823:00+12ene1175100 0.0 100612
02:00+12sw41192100 0.6 1004413
05:00+12wsw4996100 1.2 1002453
08:00+10n7994100 0.1 1003492
11:00+11n5786100 0.1 1004766
14:00+13nnw677186 0.5 10041148
17:00+12n786889 0.7 10051328
20:00+8nnw61190100 1.2 1006545
29 june, wed
wed2923:00+6nnw5119339 1.3 1007514
02:00+7nw6119275 0.3 1006554
05:00+6nw61191100 0.4 1006955
08:00+6nw61091100 0.3 1007799
11:00+7nw61092100 0.5 1007831
14:00+9nw71191100 0.1 1007892
17:00+9nnw71288100 0.3 1008965
20:00+9nw378695 0.0 1009335